Find Lemur-2 Affie-Wauwie

NORAD ID: 66295 Int'l Des: 2025-248 Owner: SPIRE Country: US Constellation: spire operational
LEOCIRCULAR

当前视图

正在加载3D地球...

关于 Lemur-2 Affie-Wauwie

正在加载描述...

即将过境

Passes for default location (London). Set your location on the main map for personalized predictions.

高度历史

Loading altitude history...

两行轨道根数

1 66295U 25248C 26146.26802080 .00022038 00000-0 83795-3 0 9994
2 66295 45.3898 233.6844 0010202 313.8326 46.1718 15.26446033 31249
Epoch: May 26, 2026 • Age: 8 hours

当前状态

高度 484.9 km
速度 7.63 km/s
星下点 -22.02°S, 112.18°E
发射日期 Nov 2, 2025
运行时间 0.5 years
类型 other

技术详情

分类 Payload
质量 7.60 kg
干质量 7.60 kg
总质量 7.60 kg
长度 0.30 m
直径 0.10 m
跨度 1.00 m
形状 Box+ 2 pan
制造商 SPIREG
平台类型 Cubesat 3U
阶段状态 In Orbit
所有者/国家 SPIRE/US

Most Searched